Temperature
14 14 14 13 13 13 13 13 13 12 12 11 11 11 11 11 11 11 11 11 11 11 11 11 11 11 11 11 11 11 11 11 11 10 10 10 10 10
13 13 13 13 13 13 13 13 13 13 12 11 11 11 11 11 11 11 11 11 11 11 11 11 11 10 10 10 10 10 10 10 10 10 10 10 10 10
13 13 13 13 13 13 13 12 12 12 12 11 11 11 11 11 11 11 10 10 10 10 10 10 10 10 10 10 9 9 9 9 9 9 9 9 9 9
13 13 13 13 12 12 12 12 12 12 12 11 11 11 11 10 10 10 10 10 10 10 10 10 9 9 9 9 9 9 9 9 9 9 9 9 9 9
13 13 12 12 12 12 12 12 12 11 11 11 11 10 10 10 10 10 10 10 10 9 9 9 9 9 9 9 9 8 8 8 8 8 8 8 8 8
12 12 12 12 12 12 12 11 11 11 11 11 10 10 10 10 10 10 10 9 9 9 9 9 8 8 8 8 8 8 8 8 7 7 7 7 7 7
12 12 12 12 12 11 11 11 11 11 11 10 10 10 10 10 9 9 9 9 9 9 8 8 8 8 8 8 8 7 7 7 7 7 6 6 6 6
12 12 12 11 11 11 11 11 10 10 10 10 10 10 9 9 9 9 8 8 8 8 8 8 8 8 8 7 7 7 6 6 6 6 6 6 6 6
12 12 12 11 11 11 11 10 10 10 10 10 9 9 9 9 8 8 8 8 8 7 7 7 7 7 7 7 7 6 6 6 5 5 5 5 5 5
11 11 11 11 11 11 10 10 10 10 10 9 9 9 8 8 8 8 7 7 7 7 7 7 7 7 7 6 6 6 5 5 5 5 5 5 5 5
11 11 11 11 11 10 10 10 10 10 9 9 9 9 8 8 8 7 7 7 7 7 6 6 6 6 6 6 6 5 5 5 4 4 4 4 4 4
11 11 11 10 10 10 10 10 9 9 9 9 8 8 8 8 7 7 7 6 6 6 6 5 5 5 4 5 5 4 4 4 4 4 4 4 3 3
11 11 10 10 10 10 9 9 9 9 8 8 8 8 7 7 7 7 6 6 6 5 5 4 4 4 4 4 4 4 4 4 4 4 3 3 3 3
11 11 10 10 10 9 9 9 8 8 8 8 8 7 7 7 6 6 6 6 5 5 4 4 4 3 3 3 3 3 3 3 3 3 3 3 3 2
10 10 10 9 9 9 9 8 8 8 7 7 7 7 7 6 6 6 5 5 5 5 4 4 3 3 3 3 2 2 2 3 2 2 2 2 2 2
10 10 9 9 9 8 8 8 8 7 7 7 6 6 6 6 5 5 5 5 5 4 4 3 3 3 3 3 2 2 2 1 2 2 1 2 2 1
10 9 9 9 9 8 8 8 7 7 7 6 6 6 5 5 5 5 4 4 4 3 3 3 3 3 2 2 2 2 2 1 1 1 1 1 1 1
9 9 9 8 8 8 8 7 7 7 6 6 5 5 5 5 4 4 4 3 3 3 3 2 2 2 2 2 2 1 1 1 1 1 0 0 1 1
9 9 8 8 8 7 7 7 6 6 6 5 5 5 4 4 4 3 3 3 3 2 2 2 2 1 1 1 1 1 0 0 0 0 -0 -0 -0 -0
8 8 8 8 7 7 7 7 6 6 5 5 5 4 4 4 3 3 3 2 2 2 2 2 1 1 0 0 0 1 0 -0 -0 -1 -1 -1 -0 -0
8 8 8 7 7 7 6 6 6 5 5 5 4 4 4 3 3 3 2 2 2 1 1 1 1 0 0 -0 -0 0 0 -0 -1 -1 -1 -1 -1 -1
8 8 7 7 7 6 6 6 5 5 4 4 4 4 3 3 3 2 2 2 1 1 1 1 0 0 -0 -0 -1 -1 -0 -0 -0 -1 -1 -2 -2 -2
8 7 7 7 6 6 6 5 5 5 4 4 3 3 3 2 2 2 2 1 1 0 0 0 -0 -0 -0 -1 -1 -1 -1 -1 -1 -1 -1 -1 -2 -2
Wind_Speed
4 4 3 3 3 2 2 3 4 2 2 3 3 5 8 9 11 10 10 12 13 13 13 13 13 14 14 14 14 14 14 14 14 14 14 14 14 13
3 4 4 2 3 3 3 3 3 4 2 1 2 3 5 7 9 10 10 11 13 12 12 12 12 12 12 12 12 12 13 13 14 14 13 13 13 13
3 4 3 3 3 3 3 3 3 3 3 1 2 3 4 5 8 9 9 10 11 12 12 12 11 11 12 12 12 12 12 12 13 13 14 14 13 13
3 4 3 3 4 3 3 3 3 2 3 1 2 3 3 4 5 6 7 8 9 10 12 12 11 11 11 11 11 11 12 13 13 13 13 13 14 14
3 3 2 4 3 3 3 3 2 3 3 2 1 1 2 3 3 4 6 6 7 8 9 10 10 11 11 11 11 11 11 12 12 12 12 13 13 14
2 2 2 3 3 3 3 3 3 4 3 3 1 1 2 2 2 3 4 4 4 7 7 9 9 10 10 10 10 11 11 12 12 13 12 13 13 14
3 2 2 4 4 4 3 3 4 3 3 2 1 1 2 2 2 1 2 3 3 4 4 6 7 8 9 10 10 10 11 12 12 13 13 13 14 14
3 2 3 3 4 5 5 5 5 4 3 2 1 0 2 2 1 1 1 2 3 4 3 4 5 5 8 8 10 11 11 12 12 13 14 14 15 15
3 2 2 3 4 4 4 5 4 3 3 3 2 2 2 3 1 1 1 1 2 3 3 4 4 4 7 9 11 11 11 12 13 13 14 15 15 16
3 3 3 2 3 4 4 3 2 2 2 2 2 2 2 2 2 2 2 2 2 3 1 2 4 4 6 9 11 10 11 12 13 14 15 16 16 16
2 3 3 3 4 5 4 3 1 1 2 1 1 1 2 2 1 2 1 1 3 3 1 1 3 4 4 5 8 10 12 13 14 16 16 16 16 16
1 2 3 4 4 5 4 4 2 1 1 2 3 3 4 3 2 1 1 1 1 3 2 1 3 3 4 3 5 9 11 13 15 16 16 17 16 13
2 2 2 4 5 5 4 3 3 2 1 1 1 2 3 3 3 2 1 2 2 3 3 1 2 2 3 5 5 7 9 10 11 13 15 16 16 14
3 3 2 5 5 4 3 3 2 2 1 1 1 1 2 2 3 3 3 3 4 5 6 3 2 3 4 5 6 5 7 9 9 9 12 15 15 16
3 4 4 4 3 2 2 2 2 1 1 0 1 2 3 3 2 3 4 4 5 6 6 6 4 4 4 5 6 6 7 7 7 8 10 10 11 11
2 3 4 3 2 1 1 1 1 1 2 2 2 2 2 2 2 2 2 3 3 5 6 7 7 5 5 6 7 8 7 6 7 9 9 10 11 11
4 2 2 1 1 0 0 0 0 0 1 1 2 2 2 2 2 2 2 2 3 5 5 5 7 8 8 6 7 7 7 7 8 8 9 10 9 10
5 2 2 2 2 2 2 2 1 2 2 2 2 2 2 2 3 3 2 3 4 5 5 5 6 6 5 5 7 7 6 7 8 8 8 9 10 11
4 3 3 3 3 3 3 3 3 3 2 2 2 2 2 3 3 3 3 4 5 5 5 5 4 4 7 9 6 5 7 8 8 8 8 8 10 11
3 4 4 4 4 4 3 3 3 2 2 2 2 3 3 3 3 4 4 4 5 5 6 5 4 5 6 8 8 8 10 8 8 9 9 9 9 13
4 4 4 4 4 4 4 3 3 3 3 3 3 3 3 3 4 4 4 6 5 5 7 7 7 10 7 5 7 7 7 11 11 9 9 9 10 9
5 5 4 4 4 4 4 4 3 3 3 3 3 3 3 3 4 5 5 5 5 6 7 7 7 6 4 6 9 10 10 10 13 14 12 11 8 8
5 4 4 4 4 4 4 4 5 4 4 4 4 4 3 3 4 4 5 5 5 6 6 7 6 5 5 6 9 10 11 12 9 10 10 14 16 17
Wind_Direction
73 75 72 55 62 74 102 125 133 115 5 337 343 348 7 26 30 38 40 39 40 40 39 38 38 39 38 36 34 31 29 26 22 19 16 12 8 3
71 78 69 56 60 65 79 80 102 135 138 318 317 326 2 24 28 34 36 39 36 35 35 35 35 34 33 32 29 27 25 22 19 16 12 7 4 1
68 82 74 69 72 64 70 77 78 103 127 330 340 344 11 17 17 28 31 31 29 32 33 33 32 31 28 25 23 22 19 16 13 10 7 4 0 356
87 84 74 82 76 69 79 81 81 89 127 123 348 354 2 1 8 15 18 22 22 25 30 31 29 27 25 21 18 16 12 7 4 2 359 357 355 352
109 111 108 100 89 79 81 82 76 77 86 116 19 351 352 1 7 7 11 8 12 13 22 23 21 18 15 13 9 5 3 0 359 355 353 351 348 345
98 109 114 123 126 116 99 96 96 87 83 87 53 360 344 336 12 2 357 356 359 5 9 7 6 5 4 2 359 356 355 354 351 349 347 344 341 338
85 82 102 114 118 119 118 126 118 108 99 89 58 19 347 346 336 323 336 332 338 2 352 350 351 352 348 349 350 349 348 347 346 344 342 339 337 333
118 85 77 77 88 99 108 117 127 131 140 132 126 234 282 271 289 318 325 351 333 341 343 328 348 336 335 340 341 342 342 343 342 341 339 338 335 333
138 125 109 97 91 90 86 83 82 109 142 157 169 226 238 238 225 305 285 265 275 309 331 311 324 318 325 333 336 336 338 340 340 337 335 334 333 331
147 153 146 139 126 123 110 85 66 59 88 127 184 226 228 214 200 215 231 272 287 312 333 296 310 303 314 319 329 334 337 338 337 334 332 331 330 329
165 153 158 168 154 135 122 115 60 345 44 89 88 11 338 341 64 80 27 4 323 310 321 290 304 309 304 299 318 332 334 332 332 332 331 329 329 329
168 170 176 178 169 152 148 151 166 263 8 38 30 16 14 11 14 89 200 239 291 301 300 298 304 325 316 295 308 320 323 323 326 327 327 327 327 328
181 202 209 186 177 169 160 171 192 184 132 86 354 347 1 6 1 349 285 197 235 263 281 274 288 302 284 296 303 303 311 316 320 321 324 325 325 324
188 200 190 170 172 170 160 161 164 126 105 82 4 323 317 310 317 328 316 289 261 263 277 264 257 271 286 292 297 302 307 310 314 315 320 321 320 319
181 171 161 155 153 156 160 154 134 123 133 159 268 272 272 281 312 329 332 324 311 299 294 282 267 267 263 275 286 293 303 305 307 314 317 317 315 317
161 150 143 127 118 127 125 114 139 182 186 220 252 270 295 315 314 315 318 323 319 311 309 302 291 270 273 273 276 287 292 296 309 312 313 311 312 312
147 115 100 108 127 255 281 266 240 194 244 250 250 276 296 305 307 311 310 318 308 308 313 315 316 299 272 271 282 283 289 295 300 308 312 311 308 312
141 153 183 196 207 220 234 251 242 238 244 250 257 265 278 292 304 315 312 300 298 299 304 312 324 327 318 285 250 273 290 297 304 306 305 306 306 309
156 186 203 211 217 220 225 230 239 242 234 236 250 263 274 287 297 302 304 304 301 299 301 308 316 320 318 314 296 265 290 302 305 306 303 302 301 303
185 199 213 218 219 223 227 229 237 241 236 243 254 262 264 274 285 289 290 295 298 303 306 306 301 300 296 299 298 298 295 292 299 303 305 304 297 297
206 211 216 217 220 224 228 229 229 232 240 242 250 257 258 262 273 279 284 293 299 300 299 299 293 301 298 295 296 298 294 297 298 300 305 307 308 308
209 215 221 221 221 223 224 222 225 231 237 244 251 254 257 260 269 276 282 288 289 289 293 297 303 309 303 296 297 301 305 309 310 308 304 297 301 303
215 216 220 224 225 223 218 220 223 232 235 241 249 253 256 263 269 272 279 282 289 293 301 306 309 303 298 295 298 302 305 310 313 315 311 311 306 301
Height
1570 1570 1570 1570 1570 1570 1570 1570 1570 1569 1569 1569 1569 1568 1566 1565 1564 1562 1560 1559 1557 1556 1554 1552 1551 1549 1548 1546 1545 1543 1542 1540 1539 1537 1536 1534 1532 1531
1570 1571 1571 1571 1571 1571 1570 1570 1570 1570 1569 1569 1569 1568 1567 1565 1564 1562 1561 1559 1558 1556 1554 1552 1551 1549 1548 1546 1544 1542 1541 1539 1537 1536 1534 1532 1531 1529
1571 1571 1571 1571 1571 1571 1570 1570 1570 1570 1569 1569 1569 1568 1567 1565 1564 1562 1561 1559 1558 1556 1554 1552 1550 1549 1547 1545 1543 1541 1540 1538 1536 1534 1532 1530 1528 1527
1571 1571 1571 1571 1571 1571 1571 1570 1570 1570 1569 1568 1568 1567 1566 1565 1563 1562 1560 1559 1557 1555 1553 1552 1550 1548 1546 1544 1542 1540 1538 1536 1534 1532 1530 1528 1526 1524
1571 1571 1571 1571 1571 1571 1570 1570 1570 1569 1569 1568 1567 1567 1566 1564 1563 1562 1560 1558 1556 1555 1553 1551 1549 1547 1545 1543 1541 1539 1536 1534 1532 1530 1528 1526 1523 1521
1570 1570 1571 1570 1570 1570 1570 1569 1569 1569 1568 1567 1567 1566 1565 1563 1562 1560 1559 1557 1555 1554 1552 1550 1548 1546 1544 1541 1539 1537 1534 1532 1530 1527 1525 1523 1520 1518
1569 1570 1570 1570 1570 1569 1569 1569 1568 1568 1567 1566 1565 1565 1564 1562 1561 1559 1557 1556 1554 1552 1550 1548 1546 1544 1542 1539 1537 1534 1532 1529 1527 1524 1522 1519 1517 1514
1569 1569 1569 1569 1569 1568 1568 1568 1568 1567 1566 1565 1564 1563 1562 1561 1560 1558 1556 1554 1552 1551 1548 1546 1544 1541 1539 1536 1534 1532 1529 1527 1524 1521 1519 1516 1513 1510
1567 1568 1568 1568 1567 1567 1567 1566 1566 1565 1565 1564 1563 1562 1561 1560 1558 1557 1555 1553 1550 1548 1546 1543 1541 1539 1537 1534 1531 1529 1526 1523 1521 1518 1515 1512 1509 1506
1566 1566 1566 1566 1566 1566 1565 1565 1564 1564 1563 1562 1561 1560 1559 1558 1556 1555 1553 1551 1549 1546 1544 1540 1538 1535 1533 1531 1528 1526 1523 1520 1517 1514 1511 1508 1505 1502
1564 1565 1565 1564 1564 1564 1564 1563 1563 1562 1561 1560 1559 1558 1557 1556 1554 1553 1550 1548 1545 1543 1541 1538 1534 1531 1529 1527 1525 1522 1520 1517 1514 1510 1507 1504 1501 1497
1563 1563 1563 1563 1563 1562 1562 1561 1560 1560 1559 1558 1557 1556 1555 1553 1552 1550 1548 1545 1542 1540 1538 1535 1532 1529 1525 1523 1521 1519 1516 1513 1510 1506 1503 1499 1496 1492
1561 1561 1561 1561 1560 1560 1559 1559 1558 1557 1556 1555 1554 1553 1552 1551 1549 1547 1545 1543 1540 1538 1536 1533 1529 1527 1524 1520 1517 1515 1512 1508 1505 1502 1498 1495 1491 1488
1558 1559 1559 1558 1558 1558 1557 1556 1556 1555 1554 1552 1551 1550 1549 1547 1546 1544 1542 1540 1538 1535 1533 1530 1527 1524 1520 1516 1512 1509 1507 1504 1500 1497 1493 1490 1486 1483
1556 1556 1556 1556 1556 1555 1554 1553 1553 1552 1550 1549 1548 1547 1546 1544 1542 1540 1538 1536 1534 1532 1529 1526 1523 1520 1517 1513 1509 1505 1501 1498 1495 1492 1488 1484 1480 1477
1553 1553 1553 1553 1553 1552 1551 1550 1549 1548 1547 1546 1545 1544 1542 1540 1538 1536 1534 1531 1529 1527 1525 1522 1519 1516 1512 1509 1505 1501 1498 1494 1490 1487 1483 1479 1475 1472
1550 1550 1550 1550 1549 1548 1548 1547 1546 1545 1544 1542 1541 1540 1538 1536 1534 1532 1530 1527 1525 1522 1519 1518 1515 1512 1508 1505 1500 1497 1493 1489 1486 1482 1477 1473 1470 1466
1547 1546 1546 1546 1545 1545 1544 1543 1542 1541 1540 1539 1537 1536 1534 1532 1530 1528 1526 1524 1521 1518 1515 1513 1510 1506 1503 1499 1497 1492 1489 1485 1481 1477 1473 1467 1463 1460
1543 1542 1542 1542 1542 1541 1540 1540 1539 1538 1537 1535 1534 1532 1530 1528 1526 1524 1522 1520 1517 1514 1512 1509 1506 1502 1497 1493 1490 1489 1485 1480 1475 1472 1468 1463 1458 1454
1538 1539 1539 1538 1538 1537 1537 1536 1535 1534 1533 1531 1530 1528 1526 1524 1522 1520 1518 1515 1513 1510 1507 1505 1502 1499 1495 1491 1486 1482 1481 1476 1471 1466 1462 1458 1453 1449
1534 1534 1534 1534 1534 1533 1532 1532 1531 1529 1528 1527 1525 1524 1522 1520 1518 1516 1514 1511 1509 1506 1503 1500 1498 1495 1491 1487 1482 1477 1475 1472 1468 1463 1457 1452 1447 1442
1530 1530 1530 1530 1529 1529 1528 1527 1526 1525 1524 1522 1521 1520 1518 1516 1514 1512 1509 1507 1504 1502 1499 1496 1493 1489 1486 1482 1477 1473 1468 1466 1463 1459 1455 1450 1444 1438
1526 1526 1525 1525 1524 1524 1523 1522 1521 1520 1519 1518 1517 1515 1513 1511 1509 1507 1505 1502 1500 1497 1494 1491 1488 1484 1481 1477 1473 1468 1464 1460 1455 1451 1448 1445 1441 1436